Regional Weather Roundup
Issued by NWS

Home | Current Version | Previous Version | Text Only | Print | Product List | Glossary Off
Versions: 1 2 3 4 5 6 7 8 9 10 11 12 13 14 15 16 17 18 19 20 21 22 23 24 25 26 27 28 29 30 31 32 33 34 35 36 37 38 39 40 41 42 43 44 45 46 47 48 49 50

000
ASUS43 KLOT 170104
RWRIL

ILLINOIS REGIONAL WEATHER ROUNDUP
NATIONAL WEATHER SERVICE CHICAGO/ROMEOVILLE IL
800 PM CDT WED AUG 16 2017

NOTE: "FAIR" INDICATES FEW OR NO CLOUDS BELOW 12,000 FEET WITH NO
SIGNIFICANT WEATHER AND/OR OBSTRUCTIONS TO VISIBILITY.

* THESE STATIONS ARE NOT UNDER NWS QUALITY CONTROL. THEY ALSO MAY NOT
  REPORT WEATHER SUCH AS PRECIPITATION OR FOG.

ILZ001-002-007-009-015-016-024-170200-
NORTHWEST ILLINOIS

CITY           SKY/WX    TMP DP  RH WIND       PRES   REMARKS
MOLINE         CLOUDY    79  72  79 S8        29.79S HX  82
STERLING*      MOCLDY    77  74  90 VRB5      29.82S
SAVANNA*       CLOUDY    77  74  90 S7        29.79S
$$

ILZ003-004-008-010-011-017-018-170200-
NORTH CENTRAL ILLINOIS

CITY           SKY/WX    TMP DP  RH WIND       PRES   REMARKS
ROCKFORD       LGT RAIN  76  72  87 SE10      29.84F FOG
FREEPORT*      CLOUDY    73  72  96 SE14G22   29.83F FOG
ROCHELLE*      MOCLDY    74  73  95 SE8       29.84F FOG
PERU*          CLOUDY    77  71  81 SE7       29.85S
$$

ILZ005-006-012>014-019>023-170200-
NORTHEAST ILLINOIS

CITY           SKY/WX    TMP DP  RH WIND       PRES   REMARKS
CHICAGO-OHARE  CLOUDY    77  72  84 SE7       29.87S
CHICAGO-MIDWAY CLOUDY    80  74  81 SE8       29.87S HX  85
AURORA         CLOUDY    76  74  93 SE8       29.87S FOG
LANSING*       CLOUDY    79  70  73 S7        29.89R HX  82
JOLIET*        CLOUDY    79  75  89 S3        29.88S HX  82
WAUKEGAN       CLOUDY    73  73 100 E3        29.87F FOG
DUPAGE AIRPORT CLOUDY    75  73  93 SE5       29.87S
WHEELING       CLOUDY    75  74  96 SE3       29.89S
MORRIS*        CLOUDY    77  73  85 S6        29.86S
NORTHERLY ISL    N/A     76  72  87 E2          N/A
$$

LMZ740>746-170200-
SOUTHERN LAKE MICHIGAN

STATION/POSITION SKY/WX   TEMP    WIND        PRES    VSBY  WAVE
                          AIR SEA DIR/SP/G                  HT/PER
                          (F)     (DEG/KT/KT) (MB)    (MI)  (FT/S)
SOUTHERN BUOY              74 73   70/ 10/ 10 1012.0          1
WILMETTE HARBOR            74 73  130/  6/  6   N/A           1/ 3
HARRISON CRIB              78     170/  3/  3   N/A
CALUMET HARBOR             81     160/  5/  8 1011.4F
BURNS HARBOR               83     170/  8/ 13 1012.5S
MICHIGAN CITY              82     130/  6/  8   N/A
MICHIGAN CITY 6N           80 76  150/  6/  8   N/A           1
ST. JOSEPH                 80 75  170/  8/ 10 1011.7F         1
$$

ILZ025>027-034>036-040-047-049-050-058-095>099-170200-
WEST-CENTRAL ILLINOIS

CITY           SKY/WX    TMP DP  RH WIND       PRES   REMARKS
QUINCY         PTCLDY    75  68  78 S12       29.86R
GALESBURG*     CLOUDY    76  74  91 S8G16     29.83R
MACOMB*        PTCLDY    79  71  77 S12G18    29.85R HX  82
JACKSONVILLE*  CLOUDY    73  70  90 SW10G20   29.88R
PITTSFIELD*    CLOUDY    73  71  92 S8        29.90R
$$

ILZ028>032-037-038-041>044-048-051>054-059>061-170200-
CENTRAL ILLINOIS

CITY           SKY/WX    TMP DP  RH WIND       PRES   REMARKS
PONTIAC        CLOUDY    78  77  96 CALM      29.87F HX  80
BLOOMINGTON    LGT RAIN  77  75  93 S8        29.88S
DECATUR        CLOUDY    79  74  84 SW17      29.87F HX  82
PEORIA         LGT RAIN  79  77  94 S12       29.84S HX  83
LACON*         CLOUDY    78  74  87 S9        29.83F HX  80
LINCOLN*       CLOUDY    77  72  84 SW7G18    29.86S
SPRINGFIELD    LGT RAIN  75  72  90 W8        29.86R
TAYLORVILLE    DRIZZLE   73  72  96 S16G25    29.84F
$$

ILZ033-039-045-046-055>057-062-063-170200-
EAST-CENTRAL ILLINOIS

CITY           SKY/WX    TMP DP  RH WIND       PRES   REMARKS
CHAMPAIGN      CLOUDY    79  74  84 S9        29.90S HX  82
RANTOUL*       CLOUDY    80  76  89 S6        29.90F HX  85
MATTOON        LGT RAIN  78  77  96 S9        29.90S HX  81
PARIS*         CLOUDY    78  75  90 S7        29.92F HX  80
$$

ILZ079-100>102-170200-
SOUTHWEST ILLINOIS

CITY           SKY/WX    TMP DP  RH WIND       PRES   REMARKS
ALTON          LGT RAIN  72  72 100 S12       29.91S
BELLEVILLE     CLOUDY    75  73  93 W3        29.92F
CAHOKIA*       LGT RAIN  74  70  87 VRB7      29.91S
SPARTA*        LGT RAIN  74  73  95 SW9       29.96S
$$

ILZ064>066-069>071-074>076-080>082-084>086-088>090-092>094-170200-
SOUTH-CENTRAL ILLINOIS

CITY           SKY/WX    TMP DP  RH WIND       PRES   REMARKS
CARBONDALE     CLOUDY    74  74 100 CALM      29.95F
CAIRO*         CLOUDY    81  75  82 CALM      29.94F HX  87
EFFINGHAM*     RAIN      73  73 100 S7G16     29.95F
MARION         CLOUDY    75  75 100 CALM      29.96F
MT. VERNON     LGT RAIN  73  71  93 CALM      29.95F
CENTRALIA*     MOCLDY    74  73  96 S5        29.95F
SALEM*         RAIN      74  72  93 S5        29.94F
METROPOLIS*    CLOUDY    83  76  81 CALM      29.96S HX  91
$$

ILZ067-068-072-073-078-083-087-091-170200-
SOUTHEAST ILLINOIS

CITY           SKY/WX    TMP DP  RH WIND       PRES   REMARKS
LAWRENCEVILLE  CLOUDY    80  75  84 S7        29.93F HX  85
FLORA*         RAIN      74  72  93 W3        29.96S
FAIRFIELD*     RAIN      74  74  99 W5        29.94S
HARRISBURG*    MOCLDY    80  73  79 NW10G16   29.96S HX  85
ROBINSON*      CLOUDY    77  75  93 S5        29.94S
CARMI*         CLOUDY    79  75  87 SW6       29.94S HX  84
$$

ABBREVIATIONS USED IN REMARKS
   TC - TEMPERATURE IN CELSIUS
  WCI - WIND CHILL INDEX
   HX - HEAT INDEX
  VSB - VISIBILITY
$$





USA.gov is the U.S. government's official web portal to all federal, state and local government web resources and services.